User: anonymous   Login
Location: Kott?ru
(16.6209°N, 80.6208°E)
Time: 19:18:26
(UTC+00:00)
Language:

DMSP B5D2-2 - Orbit

View from above orbital plane
View from above orbital plane
View from above satellite
View from above satellite

Ground track
Ground track

The orbit data is extracted from the following two-line orbital elements,

1 14506U 83113A   20330.85959265 +.00000057 +00000-0 +39432-4 0  9996
2 14506 098.3130 175.7312 0012332 105.1327 266.3384 14.28120543925714
Epoch (UTC): 25 November 2020 20:37:48
Eccentricity: 0.0012332
inclination: 98.3130°
perigee height: 789 km
apogee height: 807 km
right ascension of ascending node: 175.7312°
argument of perigee: 105.1327°
revolutions per day: 14.28120543
mean anomaly at epoch: 266.3384°
orbit number at epoch: 92571

The dashed part of the orbit path shows where the satellite is in the earth's shadow,  

DLR